Tracking 19176 objects as of 26-May-2018
HD Live streaming from Space Station
objects crossing your sky now

TELE-X

Track TELE-X now!
TELE-X is classified as:


NORAD ID: 19919
Int'l Code: 1989-027A
Perigee: 36,089.6 km
Apogee: 36,114.1 km
Inclination: 15.1 °
Period: 1,451.9 minutes
Semi major axis: 42472 km
RCS: 3.8854 m2 (large)
Launch date: April 2, 1989
Source: Sweden (SWED)
Launch site: FRENCH GUIANA (FRGUI)
aabbcc
Your satellite tracking list
Your tracking list is empty




NASA's NSSDC Master Catalog

Two Line Element Set (TLE):
1 19919U 89027A   18144.35305712 -.00000193  00000-0  00000+0 0  9992
2 19919  15.0526  16.8818 0002884  61.5165 291.9180  0.99182622 88058
Source of the keplerian elements: AFSPC